AUA650A LKPR-LOWW

Flight info

Callsign AUA650A
Flight time 0h 32m
Altitude 17000
Route VOZ DCT LANUX LANUX7W
Aircraft A319/M-SDE3FGHIRWY/LB1

Departure

Time 2026-04-25 14:11
Airport Václav Havel Airport Prague (LKPR)

Arrival

Time 2026-04-25 14:44
Airport Vienna International Airport (LOWW)
Time Latitude Longitude Altitude Speed Heading
2026-04-25 13:55 50.10597 14.26283 1175 ft 0 kts 34°
2026-04-25 14:03 50.10593 14.26279 1178 ft 3 kts 34°
2026-04-25 14:03 50.10571 14.26255 1174 ft 4 kts 34°
2026-04-25 14:03 50.10554 14.26238 1173 ft 4 kts
2026-04-25 14:03 50.10533 14.26250 1176 ft 4 kts 307°
2026-04-25 14:04 50.10535 14.26243 1175 ft 4 kts 295°
2026-04-25 14:04 50.10540 14.26202 1174 ft 4 kts 284°
2026-04-25 14:04 50.10547 14.26172 1173 ft 4 kts 295°
2026-04-25 14:04 50.10562 14.26137 1177 ft 4 kts 305°
2026-04-25 14:05 50.10573 14.26112 1176 ft 0 kts 304°
2026-04-25 14:07 50.10575 14.26110 1177 ft 1 kts 304°
2026-04-25 14:07 50.10588 14.26083 1177 ft 5 kts 315°
2026-04-25 14:07 50.10633 14.26075 1177 ft 9 kts 18°
2026-04-25 14:07 50.10695 14.26138 1177 ft 13 kts 34°
2026-04-25 14:08 50.10780 14.26229 1177 ft 16 kts 34°
2026-04-25 14:08 50.10874 14.26329 1175 ft 17 kts 34°
2026-04-25 14:08 50.10980 14.26441 1174 ft 19 kts 34°
2026-04-25 14:08 50.11097 14.26567 1172 ft 21 kts 34°
2026-04-25 14:09 50.11216 14.26718 1171 ft 23 kts 58°
2026-04-25 14:09 50.11288 14.26952 1168 ft 25 kts 65°
2026-04-25 14:09 50.11362 14.27199 1168 ft 26 kts 64°
2026-04-25 14:09 50.11409 14.27349 1170 ft 18 kts 63°
2026-04-25 14:10 50.11516 14.27380 1168 ft 13 kts 321°
2026-04-25 14:10 50.11565 14.27265 1170 ft 13 kts 287°
2026-04-25 14:10 50.11529 14.27117 1168 ft 16 kts 245°
2026-04-25 14:10 50.11407 14.26712 1170 ft 81 kts 245°
2026-04-25 14:11 50.11061 14.25549 1174 ft 150 kts 246°
2026-04-25 14:11 50.10604 14.23984 1764 ft 156 kts 251°
2026-04-25 14:11 50.10142 14.22425 2517 ft 162 kts 250°
2026-04-25 14:11 50.09629 14.20757 3042 ft 181 kts 249°
2026-04-25 14:12 50.09059 14.18906 3615 ft 198 kts 248°
2026-04-25 14:12 50.08423 14.16880 4120 ft 220 kts 247°
2026-04-25 14:12 50.07631 14.14689 4773 ft 247 kts 235°
2026-04-25 14:12 50.06153 14.13074 5530 ft 276 kts 202°
2026-04-25 14:13 50.04204 14.13004 6639 ft 291 kts 169°
2026-04-25 14:13 50.02360 14.14354 7651 ft 300 kts 152°
2026-04-25 14:13 50.00615 14.16200 8713 ft 307 kts 146°
2026-04-25 14:13 49.98918 14.18230 9837 ft 309 kts 144°
2026-04-25 14:14 49.97213 14.20372 10532 ft 325 kts 144°
2026-04-25 14:14 49.95399 14.22619 10998 ft 346 kts 144°
2026-04-25 14:14 49.93442 14.24992 11532 ft 363 kts 145°
2026-04-25 14:14 49.91383 14.27347 12364 ft 369 kts 147°
2026-04-25 14:15 49.89297 14.29732 13234 ft 376 kts 141°
2026-04-25 14:15 49.88672 14.30637 13496 ft 379 kts 137°
2026-04-25 14:15 49.85585 14.35594 14792 ft 387 kts 135°
2026-04-25 14:15 49.83709 14.38630 15537 ft 391 kts 135°
2026-04-25 14:16 49.81833 14.41669 16270 ft 396 kts 136°
2026-04-25 14:16 49.79917 14.44768 17000 ft 401 kts 136°
2026-04-25 14:16 49.77973 14.47903 17739 ft 405 kts 136°
2026-04-25 14:16 49.76008 14.51067 18379 ft 413 kts 136°
2026-04-25 14:17 49.73960 14.54354 18492 ft 433 kts 136°
2026-04-25 14:17 49.71826 14.57773 18595 ft 450 kts 136°
2026-04-25 14:17 49.69608 14.61322 18728 ft 465 kts 136°
2026-04-25 14:17 49.67337 14.64957 18944 ft 475 kts 136°
2026-04-25 14:18 49.65035 14.68647 19294 ft 480 kts 136°
2026-04-25 14:18 49.62711 14.72368 19680 ft 483 kts 136°
2026-04-25 14:18 49.60365 14.76117 20067 ft 487 kts 136°
2026-04-25 14:18 49.58004 14.79879 20441 ft 490 kts 136°
2026-04-25 14:19 49.55650 14.83617 20799 ft 493 kts 136°
2026-04-25 14:19 49.53202 14.87372 20977 ft 494 kts 141°
2026-04-25 14:19 49.50549 14.90626 21016 ft 492 kts 146°
2026-04-25 14:19 49.47819 14.93803 21012 ft 492 kts 146°
2026-04-25 14:20 49.45084 14.96976 21012 ft 492 kts 146°
2026-04-25 14:20 49.43239 14.99114 20999 ft 491 kts 146°
2026-04-25 14:20 49.39634 15.03292 21012 ft 489 kts 146°
2026-04-25 14:20 49.36922 15.06440 21013 ft 489 kts 146°
2026-04-25 14:21 49.34210 15.09595 21015 ft 489 kts 146°
2026-04-25 14:21 49.31489 15.12757 21016 ft 489 kts 146°
2026-04-25 14:21 49.28778 15.15901 21017 ft 489 kts 146°
2026-04-25 14:21 49.26055 15.19043 21020 ft 489 kts 146°
2026-04-25 14:22 49.23319 15.22189 21026 ft 490 kts 146°
2026-04-25 14:22 49.20596 15.25313 21029 ft 490 kts 146°
2026-04-25 14:22 49.17908 15.28401 21026 ft 490 kts 146°
2026-04-25 14:22 49.15177 15.31539 21016 ft 490 kts 146°
2026-04-25 14:23 49.12456 15.34664 21022 ft 489 kts 146°
2026-04-25 14:23 49.09725 15.37792 20841 ft 487 kts 146°
2026-04-25 14:23 49.07041 15.40858 20603 ft 485 kts 146°
2026-04-25 14:23 49.04334 15.43944 20346 ft 483 kts 146°
2026-04-25 14:24 49.01655 15.46998 19857 ft 477 kts 146°
2026-04-25 14:24 48.98991 15.50031 18687 ft 479 kts 145°
2026-04-25 14:24 48.96336 15.53049 17913 ft 470 kts 145°
2026-04-25 14:24 48.93753 15.55978 16987 ft 464 kts 145°
2026-04-25 14:25 48.92882 15.56964 16681 ft 462 kts 145°
2026-04-25 14:25 48.88842 15.62172 15290 ft 454 kts 134°
2026-04-25 14:25 48.86902 15.65911 14596 ft 448 kts 124°
2026-04-25 14:25 48.86344 15.67191 14487 ft 444 kts 124°
2026-04-25 14:26 48.83500 15.73666 14089 ft 440 kts 125°
2026-04-25 14:26 48.81789 15.77516 13846 ft 439 kts 125°
2026-04-25 14:26 48.80081 15.81346 13586 ft 437 kts 125°
2026-04-25 14:26 48.78371 15.85171 13316 ft 435 kts 125°
2026-04-25 14:27 48.76692 15.88933 13057 ft 433 kts 125°
2026-04-25 14:27 48.75007 15.92713 12786 ft 432 kts 124°
2026-04-25 14:27 48.73326 15.96478 12547 ft 431 kts 124°
2026-04-25 14:27 48.71647 16.00233 12280 ft 429 kts 124°
2026-04-25 14:28 48.69974 16.03970 12019 ft 427 kts 124°
2026-04-25 14:28 48.68305 16.07693 11771 ft 425 kts 124°
2026-04-25 14:28 48.66667 16.11345 11520 ft 423 kts 124°
2026-04-25 14:28 48.65016 16.15019 11273 ft 422 kts 124°
2026-04-25 14:29 48.63370 16.18676 11043 ft 420 kts 124°
2026-04-25 14:29 48.61724 16.22328 10965 ft 419 kts 124°
2026-04-25 14:29 48.60080 16.25973 10991 ft 420 kts 124°
2026-04-25 14:29 48.58428 16.29630 10984 ft 420 kts 124°
2026-04-25 14:30 48.56781 16.33270 10986 ft 419 kts 124°
2026-04-25 14:30 48.53510 16.40481 10986 ft 418 kts 124°
2026-04-25 14:30 48.51863 16.44108 10985 ft 419 kts 124°
2026-04-25 14:31 48.50239 16.47676 10882 ft 403 kts 124°
2026-04-25 14:31 48.48675 16.51079 10632 ft 385 kts 127°
2026-04-25 14:31 48.46908 16.53990 10396 ft 368 kts 139°
2026-04-25 14:31 48.44882 16.56219 10154 ft 352 kts 151°
2026-04-25 14:32 48.42709 16.57756 9934 ft 338 kts 162°
2026-04-25 14:32 48.40503 16.58733 9814 ft 323 kts 167°
2026-04-25 14:32 48.38396 16.59621 9681 ft 311 kts 166°
2026-04-25 14:32 48.36325 16.60501 9550 ft 306 kts 166°
2026-04-25 14:33 48.34307 16.61359 9420 ft 305 kts 166°
2026-04-25 14:33 48.32257 16.62226 9288 ft 304 kts 167°
2026-04-25 14:33 48.30226 16.63083 9145 ft 301 kts 166°
2026-04-25 14:33 48.28214 16.63928 9018 ft 299 kts 167°
2026-04-25 14:34 48.26205 16.64772 8887 ft 299 kts 167°
2026-04-25 14:34 48.24201 16.65613 8757 ft 298 kts 167°
2026-04-25 14:34 48.22223 16.66442 8629 ft 298 kts 167°
2026-04-25 14:34 48.20229 16.67280 8501 ft 297 kts 167°
2026-04-25 14:35 48.18237 16.68116 8372 ft 296 kts 167°
2026-04-25 14:35 48.16272 16.68936 8246 ft 296 kts 167°
2026-04-25 14:35 48.14285 16.69767 8078 ft 294 kts 167°
2026-04-25 14:35 48.12319 16.70592 7627 ft 293 kts 167°
2026-04-25 14:36 48.10355 16.71415 7199 ft 292 kts 167°
2026-04-25 14:36 48.08422 16.72221 6768 ft 291 kts 167°
2026-04-25 14:36 48.06476 16.73029 6445 ft 286 kts 167°
2026-04-25 14:36 48.04602 16.73811 6323 ft 273 kts 167°
2026-04-25 14:37 48.02810 16.74559 6194 ft 261 kts 167°
2026-04-25 14:37 48.01091 16.75274 5975 ft 254 kts 167°
2026-04-25 14:37 47.99393 16.75980 5651 ft 253 kts 167°
2026-04-25 14:37 47.97697 16.76673 5296 ft 252 kts 170°
2026-04-25 14:38 47.96021 16.76611 5001 ft 240 kts 204°
2026-04-25 14:38 47.94751 16.75215 4861 ft 219 kts 238°
2026-04-25 14:38 47.94176 16.73191 4599 ft 210 kts 259°
2026-04-25 14:38 47.93814 16.71092 4314 ft 208 kts 265°
2026-04-25 14:39 47.93832 16.68955 3896 ft 210 kts 282°
2026-04-25 14:39 47.94368 16.66918 3528 ft 212 kts 302°
2026-04-25 14:39 47.95326 16.65324 3299 ft 204 kts 320°
2026-04-25 14:39 47.96535 16.64340 3066 ft 194 kts 337°
2026-04-25 14:40 47.97387 16.63970 2903 ft 188 kts 340°
2026-04-25 14:40 47.98624 16.63452 2666 ft 182 kts 342°
2026-04-25 14:40 47.99811 16.62953 2451 ft 172 kts 341°
2026-04-25 14:40 48.00904 16.62494 2221 ft 151 kts 342°
2026-04-25 14:41 48.01850 16.62096 2022 ft 132 kts 342°
2026-04-25 14:41 48.02695 16.61733 1851 ft 124 kts 340°
2026-04-25 14:41 48.03518 16.61364 1700 ft 121 kts 341°
2026-04-25 14:41 48.04332 16.61068 1571 ft 121 kts 340°
2026-04-25 14:42 48.05140 16.60736 1398 ft 121 kts 337°
2026-04-25 14:42 48.05695 16.60487 1280 ft 124 kts 338°
2026-04-25 14:42 48.06788 16.60011 1041 ft 124 kts 337°
2026-04-25 14:42 48.07627 16.59665 886 ft 125 kts 339°
2026-04-25 14:43 48.08449 16.59313 734 ft 121 kts 337°
2026-04-25 14:43 48.09243 16.58977 611 ft 114 kts 336°
2026-04-25 14:43 48.09901 16.58696 618 ft 78 kts 344°
2026-04-25 14:43 48.10334 16.58513 610 ft 56 kts 344°
2026-04-25 14:44 48.10620 16.58382 615 ft 29 kts 335°
2026-04-25 14:44 48.10758 16.58240 611 ft 23 kts 316°
2026-04-25 14:44 48.10868 16.58073 614 ft 22 kts 313°
2026-04-25 14:44 48.10976 16.57902 614 ft 22 kts 314°
2026-04-25 14:45 48.11076 16.57782 617 ft 17 kts 339°
2026-04-25 14:45 48.11169 16.57682 612 ft 18 kts 297°
2026-04-25 14:45 48.11224 16.57512 614 ft 18 kts 296°
2026-04-25 14:45 48.11279 16.57348 618 ft 12 kts 307°
2026-04-25 14:46 48.11358 16.57365 615 ft 14 kts 26°
2026-04-25 14:46 48.11441 16.57347 613 ft 15 kts 295°
2026-04-25 14:46 48.11488 16.57197 615 ft 17 kts 296°
2026-04-25 14:46 48.11546 16.57022 615 ft 20 kts 296°
2026-04-25 14:47 48.11591 16.56909 613 ft 8 kts 344°
2026-04-25 14:47 48.11627 16.56933 615 ft 9 kts 28°
2026-04-25 14:47 48.11660 16.56956 609 ft 0 kts 25°
2026-04-25 14:50 48.11660 16.56957 609 ft 0 kts 25°